Weather History for Newberry, MI

Change the Weather History Date:

Saturday, October 12, 2013

  Actual Average Record
Temperature  
Mean Temperature 58 °F -  
Max Temperature 72 °F 54 °F 74 °F (1930)
Min Temperature 43 °F 37 °F 20 °F (1936)
Degree Days  
Heating Degree Days 8    
Growing Degree Days 8 (Base 50)    
Moisture  
Dew Point 50 °F    
Average Humidity 76    
Maximum Humidity 96    
Minimum Humidity 50    
Precipitation  
Precipitation 0.04 in - - ()
Sea Level Pressure  
Sea Level Pressure 29.98 in    
Wind  
Wind Speed 9 mph (SSE)    
Max Wind Speed 20 mph    
Max Gust Speed 29 mph    
Visibility 10 miles    
Events Rain    
Averages and records for this station are not official NWS values.
T = Trace of Precipitation, MM = Missing Value Source: NWS Daily Summary

Daily Weather History Graph

Daily Weather History Graph

Search for Another Location

Airport:

Trip Planner

Search our weather history database for the weather conditions in past years. The results will help you decide how hot, cold, wet, or windy it might be!

Date:

Astronomy

Oct. 12, 2013 Rise Set
Actual Time 7:55 AM EDT 7:00 PM EDT
Civil Twilight 7:25 AM EDT 7:30 PM EDT
Nautical Twilight 6:50 AM EDT 8:05 PM EDT
Astronomical Twilight 6:15 AM EDT 8:40 PM EDT
Moon 3:28 PM EDT (10/12) 12:36 AM EDT (10/12)
Length of Visible Light 12h 05m
Length of Day
11h 05m
First Quarter, 58% of the Moon is Illuminated
Oct 12
First Quarter
Oct 18
Full
Oct 26
Last Quarter
Nov 3
New
Nov 10
First Quarter

Hourly Weather History & Observations

Time (EDT) Temp. Windchill Dew Point Humidity Pressure Visibility Wind Dir Wind Speed Gust Speed Precip Events Conditions
12:17 AM 50.0 °F - 46.0 °F 86% 30.04 in 10.0 mi SSE 6.9 mph - N/A   Clear
12:37 AM 50.4 °F - 45.9 °F 85% 30.04 in 10.0 mi SE 5.8 mph - N/A   Clear
12:58 AM 49.6 °F - 45.5 °F 86% 30.04 in 10.0 mi SSE 8.1 mph - N/A   Clear
1:17 AM 49.1 °F - 45.0 °F 86% 30.04 in 10.0 mi SSE 5.8 mph - N/A   Clear
1:38 AM 48.6 °F - 44.6 °F 86% 30.03 in 10.0 mi SE 5.8 mph - N/A   Clear
1:58 AM 47.7 °F - 43.9 °F 87% 30.03 in 10.0 mi ESE 5.8 mph - N/A   Clear
2:17 AM 46.4 °F 44.3 °F 43.2 °F 88% 30.03 in 10.0 mi ESE 4.6 mph - N/A   Clear
2:38 AM 44.4 °F 42.9 °F 42.1 °F 91% 30.03 in 10.0 mi SE 3.5 mph - N/A   Clear
2:58 AM 43.7 °F 40.3 °F 41.4 °F 91% 30.03 in 10.0 mi SSE 5.8 mph - N/A   Clear
3:17 AM 44.1 °F 40.8 °F 41.9 °F 92% 30.02 in 10.0 mi SE 5.8 mph - N/A   Clear
3:38 AM 43.9 °F 39.9 °F 41.5 °F 91% 30.02 in 10.0 mi SE 6.9 mph - N/A   Clear
3:58 AM 45.0 °F 41.2 °F 41.9 °F 89% 30.02 in 10.0 mi SE 6.9 mph - N/A   Clear
4:17 AM 44.8 °F 41.0 °F 41.5 °F 88% 30.02 in 10.0 mi SE 6.9 mph - N/A   Clear
4:38 AM 44.2 °F 41.8 °F 41.2 °F 89% 30.02 in 10.0 mi SE 4.6 mph - N/A   Clear
4:57 AM 44.2 °F 41.0 °F 41.0 °F 88% 30.02 in 10.0 mi SE 5.8 mph - N/A   Clear
5:17 AM 44.4 °F 40.5 °F 41.2 °F 88% 30.01 in 10.0 mi SE 6.9 mph - N/A   Clear
5:38 AM 45.7 °F 42.7 °F 41.9 °F 87% 30.01 in 10.0 mi SSE 5.8 mph - N/A   Clear
5:57 AM 47.1 °F - 42.8 °F 85% 30.02 in 10.0 mi SSE 6.9 mph - N/A   Scattered Clouds
6:17 AM 49.1 °F - 44.2 °F 83% 30.01 in 10.0 mi SSE 6.9 mph - N/A   Overcast
6:38 AM 49.3 °F - 44.8 °F 84% 30.01 in 10.0 mi SE 5.8 mph - N/A   Scattered Clouds
6:58 AM 47.3 °F - 43.7 °F 87% 30.01 in 10.0 mi SE 5.8 mph - N/A   Scattered Clouds
7:17 AM 47.3 °F - 44.1 °F 88% 30.01 in 10.0 mi SSE 5.8 mph - N/A   Clear
7:38 AM 49.8 °F - 45.7 °F 86% 30.00 in 10.0 mi SSE 6.9 mph - N/A   Clear
7:58 AM 50.5 °F - 46.2 °F 85% 30.00 in 10.0 mi SSE 8.1 mph - N/A   Clear
8:17 AM 49.5 °F - 45.5 °F 86% 30.00 in 10.0 mi SE 8.1 mph - N/A   Clear
8:38 AM 49.3 °F - 45.5 °F 87% 30.00 in 10.0 mi SE 5.8 mph - N/A   Scattered Clouds
8:57 AM 50.0 °F - 45.7 °F 85% 30.00 in 10.0 mi SE 6.9 mph - N/A   Clear
9:17 AM 53.8 °F - 47.1 °F 78% 29.99 in 10.0 mi SSE 9.2 mph - N/A   Clear
9:38 AM 55.9 °F - 48.0 °F 75% 29.99 in 10.0 mi SSE 11.5 mph - N/A   Clear
9:57 AM 58.5 °F - 48.2 °F 69% 29.99 in 10.0 mi SSE 10.4 mph 17.3 mph N/A   Clear
10:18 AM 60.8 °F - 49.1 °F 65% 29.99 in 10.0 mi SSE 10.4 mph - N/A   Clear
10:38 AM 62.6 °F - 49.3 °F 62% 29.99 in 10.0 mi SSE 13.8 mph 19.6 mph N/A   Clear
10:57 AM 63.9 °F - 50.0 °F 61% 29.99 in 10.0 mi South 13.8 mph 18.4 mph N/A   Clear
11:18 AM 65.1 °F - 50.5 °F 59% 29.98 in 10.0 mi South 12.7 mph 23.0 mph N/A   Clear
11:38 AM 66.0 °F - 50.9 °F 58% 29.98 in 10.0 mi SSE 16.1 mph 23.0 mph N/A   Clear
11:57 AM 67.1 °F - 50.7 °F 56% 29.97 in 10.0 mi South 13.8 mph 21.9 mph N/A   Clear
12:18 PM 67.6 °F - 50.4 °F 54% 29.97 in 10.0 mi SSE 16.1 mph 24.2 mph N/A   Clear
12:37 PM 68.2 °F - 50.7 °F 54% 29.97 in 10.0 mi South 15.0 mph 23.0 mph N/A   Clear
12:58 PM 69.4 °F - 51.6 °F 53% 29.96 in 10.0 mi South 13.8 mph 24.2 mph N/A   Clear
1:18 PM 70.0 °F - 52.2 °F 53% 29.96 in 10.0 mi South 12.7 mph 27.6 mph N/A   Clear
1:37 PM 70.3 °F - 52.3 °F 53% 29.95 in 10.0 mi South 16.1 mph 24.2 mph N/A   Clear
1:58 PM 71.1 °F - 52.9 °F 53% 29.94 in 10.0 mi South 17.3 mph 25.3 mph N/A   Clear
2:18 PM 71.2 °F - 52.7 °F 52% 29.94 in 10.0 mi South 15.0 mph 23.0 mph N/A   Clear
2:37 PM 70.9 °F - 52.5 °F 52% 29.94 in 10.0 mi South 16.1 mph 25.3 mph N/A   Clear
2:58 PM 72.1 °F - 52.9 °F 51% 29.94 in 10.0 mi SSE 18.4 mph 26.5 mph N/A   Clear
3:17 PM 71.2 °F - 53.1 °F 53% 29.93 in 10.0 mi South 16.1 mph 26.5 mph N/A   Clear
3:38 PM 71.6 °F - 53.4 °F 53% 29.92 in 10.0 mi South 12.7 mph 28.8 mph N/A   Scattered Clouds
3:58 PM 71.6 °F - 52.7 °F 51% 29.92 in 10.0 mi South 18.4 mph 27.6 mph N/A   Scattered Clouds
4:17 PM 72.0 °F - 52.3 °F 50% 29.92 in 10.0 mi South 19.6 mph 24.2 mph N/A   Clear
4:38 PM 70.0 °F - 52.0 °F 53% 29.91 in 10.0 mi South 13.8 mph 23.0 mph N/A   Clear
4:58 PM 70.0 °F - 52.2 °F 53% 29.92 in 10.0 mi SSE 15.0 mph 19.6 mph N/A   Clear
5:17 PM 69.8 °F - 52.2 °F 53% 29.92 in 10.0 mi South 12.7 mph 19.6 mph N/A   Scattered Clouds
5:38 PM 68.9 °F - 52.7 °F 56% 29.93 in 10.0 mi South 10.4 mph 16.1 mph N/A   Mostly Cloudy
5:58 PM 67.6 °F - 53.2 °F 60% 29.95 in 10.0 mi SSW 13.8 mph 20.7 mph N/A   Mostly Cloudy
6:18 PM 65.8 °F - 55.2 °F 69% 29.94 in 10.0 mi South 10.4 mph - N/A   Mostly Cloudy
6:37 PM 65.1 °F - 55.6 °F 71% 29.94 in 10.0 mi South 11.5 mph - N/A   Scattered Clouds
6:58 PM 63.9 °F - 57.0 °F 78% 29.95 in 10.0 mi SSW 12.7 mph 20.7 mph N/A   Mostly Cloudy
7:18 PM 62.6 °F - 58.1 °F 85% 29.95 in 10.0 mi SSW 13.8 mph 23.0 mph N/A   Overcast
7:37 PM 61.9 °F - 58.5 °F 89% 29.94 in 10.0 mi South 8.1 mph - N/A   Overcast
7:58 PM 61.2 °F - 58.3 °F 90% 29.95 in 10.0 mi SSW 13.8 mph 23.0 mph N/A Rain Rain
8:17 PM 60.1 °F - 58.6 °F 95% 29.96 in 7.0 mi SSW 12.7 mph - 0.01 in Rain Rain
8:38 PM 59.9 °F - 58.8 °F 96% 29.95 in 7.0 mi South 10.4 mph 17.3 mph 0.03 in Rain Rain
8:58 PM 60.1 °F - 58.6 °F 95% 29.95 in 10.0 mi South 11.5 mph 17.3 mph 0.04 in   Overcast
9:17 PM 59.9 °F - 58.5 °F 95% 29.94 in 10.0 mi South 12.7 mph 18.4 mph N/A Rain Light Rain
9:38 PM 59.9 °F - 58.5 °F 95% 29.94 in 10.0 mi South 8.1 mph - N/A   Overcast
9:58 PM 60.1 °F - 59.0 °F 96% 29.94 in 10.0 mi SSW 10.4 mph 19.6 mph N/A Rain Rain
10:17 PM 60.4 °F - 59.0 °F 95% 29.94 in 7.0 mi SSW 15.0 mph 27.6 mph N/A   Overcast
10:38 PM 60.4 °F - 58.8 °F 94% 29.94 in 7.0 mi SSW 13.8 mph 21.9 mph N/A   Overcast
10:58 PM 60.1 °F - 58.3 °F 94% 29.95 in 7.0 mi SSW 11.5 mph - N/A   Overcast
11:18 PM 59.7 °F - 57.9 °F 94% 29.95 in 7.0 mi SW 11.5 mph - N/A   Overcast
11:38 PM 59.4 °F - 56.8 °F 91% 29.96 in 7.0 mi WSW 12.7 mph 19.6 mph N/A   Overcast
11:57 PM 58.5 °F - 55.4 °F 90% 29.97 in 10.0 mi WSW 13.8 mph 18.4 mph N/A   Overcast